Precipitable_Water
0.43 0.45 0.48 0.46 0.46 0.48 0.43 0.43 0.36 0.40 0.37 0.32 0.37 0.42 0.47 0.51 0.56 0.59 0.61 0.61 0.61 0.63 0.72 0.72 0.69 0.69 0.66 0.65 0.63 0.59 0.54 0.51 0.46 0.43 0.37 0.33 0.28 0.26 0.25 0.25 0.24 0.22 0.19 0.17
0.41 0.45 0.44 0.39 0.44 0.45 0.43 0.43 0.44 0.39 0.27 0.36 0.43 0.48 0.49 0.54 0.56 0.57 0.59 0.59 0.61 0.70 0.74 0.70 0.68 0.63 0.62 0.61 0.57 0.55 0.49 0.43 0.39 0.36 0.31 0.28 0.26 0.26 0.25 0.22 0.20 0.18 0.17 0.17
0.39 0.46 0.43 0.34 0.39 0.43 0.38 0.41 0.34 0.25 0.28 0.40 0.43 0.47 0.53 0.57 0.58 0.56 0.56 0.58 0.67 0.73 0.70 0.65 0.59 0.59 0.57 0.56 0.53 0.47 0.42 0.38 0.35 0.33 0.28 0.26 0.26 0.23 0.20 0.18 0.18 0.18 0.17 0.15
0.42 0.42 0.31 0.44 0.49 0.42 0.37 0.41 0.43 0.41 0.43 0.47 0.51 0.57 0.60 0.62 0.59 0.57 0.59 0.69 0.71 0.65 0.59 0.56 0.57 0.57 0.55 0.52 0.48 0.42 0.35 0.33 0.33 0.29 0.26 0.24 0.21 0.18 0.19 0.19 0.18 0.17 0.16 0.15
0.39 0.38 0.40 0.40 0.44 0.41 0.40 0.40 0.49 0.46 0.51 0.56 0.58 0.58 0.57 0.61 0.63 0.66 0.69 0.65 0.59 0.55 0.53 0.55 0.56 0.54 0.52 0.47 0.44 0.38 0.33 0.31 0.30 0.25 0.21 0.18 0.18 0.19 0.20 0.19 0.17 0.16 0.16 0.15
0.44 0.34 0.30 0.41 0.51 0.54 0.50 0.31 0.48 0.50 0.48 0.50 0.54 0.44 0.53 0.68 0.71 0.63 0.57 0.52 0.50 0.51 0.52 0.53 0.52 0.49 0.45 0.43 0.38 0.33 0.31 0.28 0.23 0.20 0.18 0.18 0.20 0.20 0.19 0.18 0.16 0.16 0.15 0.15
0.42 0.39 0.41 0.53 0.53 0.53 0.35 0.38 0.54 0.57 0.57 0.56 0.54 0.61 0.66 0.64 0.56 0.51 0.47 0.48 0.50 0.51 0.51 0.51 0.49 0.45 0.41 0.38 0.33 0.31 0.27 0.22 0.19 0.19 0.19 0.20 0.20 0.19 0.18 0.17 0.16 0.15 0.14 0.15
0.45 0.39 0.36 0.58 0.54 0.40 0.45 0.56 0.59 0.61 0.62 0.60 0.58 0.57 0.54 0.51 0.46 0.45 0.47 0.49 0.50 0.49 0.49 0.50 0.48 0.40 0.37 0.33 0.30 0.25 0.21 0.19 0.19 0.20 0.21 0.20 0.19 0.18 0.17 0.16 0.15 0.14 0.13 0.14
0.43 0.39 0.50 0.51 0.49 0.58 0.62 0.59 0.59 0.56 0.56 0.54 0.51 0.49 0.47 0.43 0.44 0.47 0.48 0.48 0.47 0.47 0.47 0.46 0.40 0.37 0.32 0.29 0.23 0.21 0.20 0.19 0.19 0.21 0.21 0.19 0.18 0.17 0.15 0.15 0.14 0.13 0.14 0.15
0.50 0.56 0.58 0.60 0.63 0.63 0.61 0.58 0.57 0.56 0.54 0.52 0.45 0.43 0.42 0.44 0.45 0.45 0.45 0.44 0.45 0.45 0.43 0.39 0.37 0.33 0.28 0.23 0.22 0.20 0.19 0.19 0.21 0.20 0.19 0.18 0.17 0.17 0.16 0.14 0.14 0.15 0.16 0.16
0.49 0.53 0.55 0.56 0.58 0.59 0.60 0.61 0.58 0.56 0.51 0.45 0.44 0.43 0.43 0.43 0.44 0.44 0.43 0.43 0.45 0.43 0.39 0.35 0.30 0.24 0.23 0.22 0.21 0.19 0.20 0.21 0.20 0.18 0.17 0.17 0.17 0.16 0.16 0.16 0.18 0.17 0.18 0.19
0.43 0.53 0.53 0.55 0.61 0.63 0.57 0.54 0.54 0.49 0.45 0.46 0.45 0.43 0.44 0.43 0.44 0.42 0.43 0.44 0.41 0.39 0.34 0.26 0.23 0.22 0.21 0.21 0.21 0.21 0.21 0.20 0.18 0.17 0.17 0.17 0.16 0.15 0.17 0.18 0.19 0.19 0.20 0.21
0.51 0.57 0.57 0.62 0.65 0.65 0.58 0.53 0.49 0.46 0.45 0.43 0.45 0.45 0.44 0.42 0.42 0.43 0.42 0.40 0.38 0.31 0.23 0.22 0.21 0.20 0.20 0.22 0.23 0.22 0.20 0.18 0.18 0.18 0.17 0.16 0.15 0.15 0.14 0.17 0.19 0.19 0.19 0.20
0.60 0.59 0.53 0.57 0.55 0.61 0.55 0.49 0.48 0.46 0.45 0.44 0.43 0.44 0.42 0.41 0.41 0.40 0.38 0.36 0.29 0.22 0.21 0.20 0.20 0.20 0.22 0.23 0.23 0.21 0.20 0.19 0.18 0.18 0.17 0.16 0.16 0.17 0.17 0.15 0.15 0.16 0.18 0.19
0.63 0.62 0.56 0.53 0.52 0.49 0.49 0.47 0.43 0.40 0.41 0.41 0.43 0.40 0.39 0.38 0.37 0.35 0.33 0.26 0.22 0.21 0.20 0.20 0.21 0.21 0.23 0.23 0.22 0.21 0.20 0.19 0.19 0.18 0.17 0.17 0.17 0.17 0.16 0.17 0.17 0.16 0.17 0.17
0.57 0.55 0.54 0.50 0.48 0.46 0.45 0.43 0.39 0.38 0.38 0.38 0.37 0.38 0.38 0.36 0.33 0.31 0.25 0.22 0.20 0.19 0.20 0.21 0.22 0.23 0.25 0.24 0.22 0.21 0.20 0.19 0.18 0.17 0.17 0.17 0.17 0.16 0.17 0.17 0.17 0.17 0.16 0.16
0.48 0.48 0.50 0.45 0.45 0.43 0.39 0.39 0.38 0.35 0.34 0.36 0.37 0.36 0.33 0.31 0.30 0.25 0.21 0.21 0.21 0.21 0.21 0.22 0.23 0.25 0.26 0.25 0.23 0.21 0.19 0.18 0.17 0.17 0.17 0.17 0.17 0.17 0.18 0.18 0.17 0.16 0.16 0.17
0.52 0.52 0.53 0.48 0.39 0.37 0.37 0.35 0.33 0.34 0.34 0.35 0.35 0.34 0.31 0.30 0.28 0.20 0.20 0.21 0.21 0.21 0.22 0.23 0.25 0.27 0.28 0.24 0.22 0.20 0.18 0.17 0.18 0.17 0.17 0.17 0.17 0.18 0.17 0.17 0.16 0.16 0.16 0.18
0.50 0.42 0.38 0.38 0.37 0.35 0.32 0.32 0.35 0.36 0.36 0.35 0.34 0.32 0.32 0.30 0.24 0.20 0.21 0.21 0.21 0.21 0.23 0.25 0.28 0.29 0.26 0.23 0.21 0.20 0.18 0.18 0.18 0.17 0.17 0.17 0.17 0.17 0.16 0.16 0.16 0.16 0.17 0.18
0.45 0.40 0.38 0.36 0.35 0.34 0.35 0.36 0.35 0.34 0.35 0.35 0.34 0.32 0.30 0.28 0.22 0.21 0.22 0.21 0.23 0.24 0.26 0.28 0.30 0.27 0.23 0.21 0.20 0.20 0.19 0.18 0.17 0.17 0.16 0.16 0.16 0.15 0.16 0.16 0.16 0.17 0.18 0.19
0.37 0.36 0.35 0.35 0.37 0.38 0.36 0.36 0.34 0.32 0.33 0.34 0.32 0.31 0.30 0.26 0.23 0.22 0.21 0.21 0.24 0.26 0.29 0.30 0.28 0.24 0.22 0.22 0.21 0.20 0.18 0.17 0.16 0.16 0.15 0.15 0.15 0.15 0.15 0.16 0.17 0.18 0.18 0.19
0.34 0.34 0.34 0.34 0.33 0.33 0.33 0.34 0.33 0.33 0.33 0.33 0.32 0.31 0.28 0.24 0.22 0.23 0.24 0.24 0.27 0.29 0.30 0.28 0.25 0.23 0.23 0.21 0.19 0.18 0.16 0.16 0.15 0.14 0.14 0.14 0.15 0.15 0.16 0.17 0.17 0.18 0.19 0.19
0.35 0.35 0.34 0.32 0.30 0.29 0.30 0.30 0.30 0.31 0.30 0.30 0.29 0.27 0.25 0.25 0.25 0.24 0.25 0.28 0.30 0.29 0.28 0.25 0.23 0.21 0.19 0.18 0.17 0.15 0.14 0.14 0.14 0.14 0.15 0.15 0.16 0.17 0.17 0.17 0.18 0.19 0.19 0.19
0.34 0.33 0.32 0.32 0.31 0.30 0.28 0.30 0.30 0.30 0.29 0.29 0.28 0.28 0.28 0.27 0.28 0.29 0.30 0.29 0.28 0.26 0.24 0.22 0.19 0.18 0.18 0.16 0.14 0.14 0.14 0.14 0.15 0.15 0.16 0.17 0.17 0.18 0.18 0.18 0.19 0.19 0.19 0.20
0.34 0.33 0.32 0.30 0.29 0.29 0.30 0.31 0.30 0.30 0.30 0.30 0.30 0.30 0.31 0.31 0.30 0.29 0.28 0.26 0.24 0.22 0.19 0.16 0.16 0.16 0.15 0.15 0.15 0.15 0.15 0.15 0.15 0.16 0.17 0.17 0.17 0.18 0.19 0.19 0.19 0.19 0.20 0.20
0.32 0.30 0.30 0.31 0.31 0.31 0.31 0.31 0.30 0.30 0.29 0.29 0.30 0.32 0.32 0.31 0.28 0.26 0.24 0.22 0.19 0.17 0.15 0.15 0.15 0.16 0.15 0.15 0.15 0.15 0.15 0.16 0.16 0.17 0.18 0.18 0.19 0.19 0.19 0.19 0.19 0.19 0.19 0.20
0.31 0.30 0.29 0.29 0.30 0.30 0.30 0.30 0.29 0.29 0.31 0.31 0.29 0.29 0.27 0.25 0.24 0.22 0.20 0.17 0.16 0.15 0.15 0.16 0.15 0.15 0.15 0.15 0.15 0.16 0.16 0.17 0.18 0.19 0.19 0.20 0.20 0.19 0.19 0.19 0.19 0.19 0.20 0.20
Wind_Speed
16 20 19 21 22 24 24 23 21 19 21 19 18 16 14 14 14 14 16 16 17 18 18 19 19 20 22 24 27 30 33 35 37 40 41 42 43 44 46 48 49 51 53 54
12 15 19 20 21 23 23 21 22 19 20 18 16 15 14 14 14 15 16 17 17 18 18 19 21 22 24 27 29 32 35 37 39 41 42 42 44 46 47 49 51 52 54 56
13 12 14 16 21 21 19 20 22 21 20 18 17 16 15 14 14 15 16 17 17 18 19 20 22 24 26 29 32 34 36 39 41 41 42 43 45 47 49 50 52 54 55 57
11 11 12 13 12 17 18 16 18 15 15 16 16 15 15 15 14 15 16 16 17 18 19 21 23 25 27 31 33 36 38 40 40 41 43 45 46 48 50 52 53 55 56 57
11 12 10 9 12 12 15 16 16 15 14 14 14 14 13 14 15 15 16 17 18 19 20 22 24 27 30 32 35 37 39 39 40 42 44 46 48 50 51 53 54 55 57 58
10 11 12 10 12 12 11 13 14 14 14 14 14 14 15 14 15 15 15 16 17 19 21 23 26 29 32 34 36 37 38 40 41 43 45 47 49 51 52 54 55 56 58 58
12 12 11 11 10 11 10 11 11 13 13 13 13 13 13 14 14 15 16 17 18 21 23 26 29 31 33 34 36 37 39 40 42 44 47 48 50 51 53 54 55 57 57 58
10 9 13 12 11 13 12 10 11 11 11 11 12 12 13 14 15 16 17 19 21 23 26 28 31 32 33 34 36 38 39 42 44 46 48 50 51 52 53 55 56 56 57 56
11 10 9 10 10 10 9 9 10 10 11 11 12 13 15 16 17 18 20 22 24 26 28 30 31 32 33 35 37 39 41 43 45 48 49 50 51 53 54 54 55 55 54 53
8 8 8 8 8 9 9 9 9 10 11 12 13 14 15 17 19 21 22 25 27 28 29 30 31 32 34 36 38 40 42 45 47 48 49 50 51 52 53 53 53 52 52 52
9 9 8 10 10 10 10 11 11 12 13 13 13 15 17 19 21 23 25 27 28 28 29 30 31 33 35 37 39 42 44 46 48 49 50 51 51 52 52 51 50 51 51 51
13 14 13 15 14 14 13 13 14 13 13 14 16 17 20 22 23 25 26 27 27 28 28 30 31 34 36 38 41 43 46 48 49 50 50 51 51 51 49 49 49 49 50 50
15 14 14 14 14 14 14 14 13 14 15 16 18 20 22 24 25 25 26 26 26 27 28 30 32 35 37 40 43 45 47 49 50 51 51 51 51 50 49 48 48 48 48 49
14 12 13 15 15 15 14 13 13 14 16 18 20 23 24 25 25 24 24 25 26 27 29 31 34 37 40 42 45 47 48 50 50 51 50 50 48 48 48 48 48 48 48 48
16 15 14 13 12 12 13 14 15 17 19 21 23 24 24 23 23 24 24 25 26 28 30 33 36 39 42 45 47 48 49 50 50 49 48 47 47 47 47 47 47 48 48 47
15 13 13 13 13 14 14 16 17 19 21 23 24 23 23 23 23 23 24 25 27 30 33 36 39 42 44 46 48 49 49 49 49 47 46 46 46 46 46 46 47 47 47 46
13 13 14 14 15 16 16 18 19 20 22 23 23 23 22 22 23 24 25 27 30 33 36 39 42 44 46 47 48 49 48 47 47 45 45 45 45 45 46 46 46 46 46 43
13 14 15 15 15 15 17 19 20 21 22 22 22 22 22 23 25 26 27 30 33 36 39 41 44 46 47 48 48 47 47 46 45 44 44 45 45 45 46 46 46 45 42 39
14 12 12 13 14 16 18 19 20 21 21 21 22 23 24 25 26 28 30 33 36 39 41 43 46 47 47 47 47 46 45 44 44 44 44 45 45 44 45 45 44 41 37 34
15 13 13 14 16 17 18 19 19 20 21 22 24 24 26 27 29 31 33 36 39 41 43 45 46 46 46 46 46 44 44 44 44 44 44 44 44 44 44 42 39 35 33 30
14 14 15 16 16 17 18 20 21 22 23 24 26 27 29 30 31 33 35 38 40 42 44 45 46 45 45 45 44 43 44 44 45 44 44 44 44 42 40 36 33 31 29 28
14 15 16 16 18 19 21 22 23 24 25 27 28 29 30 31 33 36 38 40 42 44 44 45 44 44 44 44 43 44 44 45 44 44 43 43 41 38 35 32 30 28 27 24
13 15 17 18 20 22 23 24 25 27 28 29 30 31 32 34 35 37 39 40 42 44 44 44 44 44 44 43 44 45 45 44 44 43 42 39 36 33 31 29 27 26 24 21
15 18 19 21 22 23 25 26 27 28 29 30 31 32 33 35 37 38 39 41 43 43 43 43 43 43 44 44 44 44 44 44 43 41 37 34 32 30 28 27 25 23 20 17
19 21 22 23 24 25 26 27 28 29 30 30 32 33 34 36 37 39 40 42 42 42 42 41 42 43 43 44 44 43 43 42 39 36 33 32 30 28 26 25 23 19 16 11
22 23 24 25 25 26 27 28 29 30 30 31 32 34 35 37 38 39 40 42 41 41 40 41 42 43 43 43 43 43 41 38 36 34 32 30 28 26 24 22 19 16 11 7
23 24 25 25 26 27 28 28 29 30 31 32 33 34 36 37 38 40 41 40 39 40 40 41 42 42 42 43 42 39 37 36 35 33 31 29 26 25 22 19 15 11 6 4
Wind_Direction
214 216 212 215 219 221 228 233 235 242 242 247 248 246 249 250 250 249 251 254 258 262 267 273 279 285 291 296 300 304 308 310 312 313 313 314 315 316 316 317 317 317 317 317
210 215 221 225 225 225 232 234 244 242 247 243 243 245 250 250 251 255 257 259 263 265 268 275 281 287 293 298 302 306 309 310 312 313 314 315 315 316 316 317 317 318 318 318
219 215 214 234 227 225 232 233 234 237 244 238 242 242 244 250 258 260 261 265 265 268 273 278 284 290 296 300 304 307 309 311 313 314 314 315 316 316 317 317 318 318 318 318
207 211 227 235 234 229 227 235 236 241 238 237 236 241 248 258 262 266 268 268 271 274 279 283 289 294 298 302 306 308 310 312 314 314 315 316 316 316 317 318 318 318 319 319
208 218 241 233 228 220 221 235 234 231 234 233 235 244 255 263 271 271 272 273 276 279 283 287 292 296 301 304 307 309 311 312 314 315 315 316 316 317 317 318 319 319 319 320
218 221 227 236 234 229 226 246 230 229 229 232 239 249 255 261 270 275 278 280 281 284 288 292 296 300 303 306 308 310 311 313 314 315 315 316 316 317 318 319 319 320 320 320
224 237 249 236 228 220 232 250 229 227 229 234 246 253 259 267 274 279 282 283 286 290 293 296 299 302 305 307 309 310 311 313 314 315 316 316 317 318 318 319 319 320 320 321
223 235 246 229 230 234 249 238 225 227 232 239 248 258 265 272 277 280 284 287 291 293 296 299 301 304 306 308 310 311 312 314 315 315 316 317 317 318 319 319 320 320 321 322
218 231 241 236 249 237 224 217 225 228 239 248 257 266 270 276 279 284 288 291 294 296 298 301 303 305 307 309 310 312 313 314 315 316 317 317 318 318 319 320 320 321 322 323
222 242 242 229 229 233 233 233 234 242 250 259 266 270 276 280 284 288 291 294 297 298 300 302 304 306 307 310 311 313 314 315 316 317 317 318 318 319 319 320 321 322 322 323
238 244 241 244 239 236 241 243 249 258 263 264 269 277 282 286 289 292 294 297 299 300 301 303 305 307 309 311 312 314 315 316 317 317 317 317 318 319 320 320 321 322 322 323
250 243 250 246 244 245 249 253 254 257 262 270 276 282 288 291 293 295 297 299 300 301 303 305 307 309 311 313 314 315 316 317 317 317 318 318 318 319 320 320 321 322 322 323
260 253 261 250 247 250 252 253 256 259 267 274 284 288 292 295 296 296 298 299 301 302 305 307 309 311 313 314 315 316 316 317 317 317 318 318 319 319 320 321 322 323 324 324
256 255 258 250 248 247 247 251 259 269 277 283 288 293 295 297 297 298 298 300 302 304 306 309 311 313 314 315 316 316 316 317 317 317 318 318 319 319 320 321 322 323 324 324
259 265 250 240 240 242 249 258 265 274 281 288 293 294 296 296 297 298 300 301 304 306 309 311 313 314 315 316 316 316 317 317 317 318 318 318 319 319 320 321 322 323 324 324
250 249 239 240 242 248 259 265 273 280 286 291 294 295 295 297 298 299 301 303 305 308 310 312 313 315 315 316 317 317 317 317 318 318 318 319 319 320 321 321 322 323 324 324
234 239 241 246 251 254 262 271 280 286 291 293 294 295 296 297 299 300 302 304 307 308 311 312 313 315 316 317 317 317 317 318 318 318 318 319 320 320 320 321 322 323 323 324
237 244 246 248 249 260 272 279 285 289 292 294 295 295 296 297 298 300 303 306 308 310 311 313 314 316 316 316 317 317 317 317 318 318 318 319 320 320 321 321 322 323 323 324
240 240 241 250 260 271 279 284 287 290 293 295 296 296 297 298 300 301 304 307 309 311 312 313 314 315 316 317 317 317 317 317 317 318 318 319 320 320 321 321 322 323 324 325
236 242 251 263 273 280 283 288 291 293 295 297 298 299 299 300 301 303 305 307 309 311 312 313 314 315 315 316 317 316 316 317 317 317 318 319 319 320 321 321 322 323 325 326
234 249 261 270 276 281 287 291 293 295 297 298 299 300 300 301 302 304 305 307 309 312 313 313 314 314 315 316 316 316 316 317 317 317 318 318 319 319 320 321 322 324 325 326
250 259 266 271 278 285 289 291 294 297 298 299 300 301 302 302 303 304 306 308 310 312 312 313 314 314 315 315 316 316 316 316 316 317 317 318 318 319 320 321 322 323 324 326
259 268 274 279 284 288 291 293 294 296 298 299 300 301 302 303 305 306 308 309 311 312 313 313 313 314 315 315 316 316 316 316 316 317 317 317 317 318 319 320 322 323 323 325
274 279 283 286 287 290 292 295 297 298 300 301 302 303 304 305 306 307 308 310 311 312 313 313 313 314 315 315 316 316 316 316 317 317 316 316 316 317 317 319 320 321 322 322
283 286 287 288 290 292 294 296 299 300 301 303 304 305 306 307 308 309 310 311 312 313 312 313 314 315 315 316 316 316 317 317 316 316 316 315 315 315 315 317 318 319 319 317
287 288 289 290 291 293 295 297 299 300 301 303 305 306 308 309 310 310 311 312 312 312 313 314 315 315 316 316 316 317 317 316 316 315 315 314 313 312 312 314 314 314 310 308
288 288 290 292 293 295 296 298 299 301 303 304 306 308 309 310 310 311 312 312 312 313 314 315 315 316 316 317 317 317 317 316 315 315 313 312 310 308 308 307 306 302 289 284